Parma Airport

Jump to: basic info | weather | frequencies | runways | comments

Related pages: nearby airports | nearby navaids | notams | map

Basic information (top)

Codes: PMF LIMP
Location: lon 44.824501, lat 10.296400, elev 161 ft / 49 m msl
Status: medium_airport
Scheduled airline service: yes
Links: Wikipedia Mobile

Weather (top)

Current conditions (rec'd 2014/11/25 21:50Z):

LIMP 252150Z 08007KT 2500 BR BKN015 BKN040 10/09 Q1020

Airport forecast (rec'd 2014/11/25 18:21Z):

TAF LIMP 251700Z 2518/2618 VRB05KT 3000 BR SCT030 BKN070 
      TEMPO 2518/2608 RA BKN010 BKN030

Frequencies (top)

Verify before use: may be inaccurate or out of date.

APP: 126.55 MHz (APP)
TWR: 118.45 MHz (TWR)

Runways (top)

02/20: 6,962 x 148 ft (2,122 x 45 m) — paved — lighted — threshold 02 displaced 702 ft (214 m) — threshold 20 displaced 597 ft (182 m)

Latest comments (top)

LIMP APPROACH frequency: actual APP frequency is 127.575 (the ... [read]

More... (top)

See also NOTAMs and nearby airports and navaids, or visit the Parma Airport page at the main OurAirports website..